Weather reports worldwide

Advertisment
Blencathra, United Kingdom (99143): temperature & dewpoint: 06.11.2019 16:00:00 - 12.11.2019 16:00:00 (GMT)Blencathra, United Kingdom (99143): precipitation: 06.11.2019 16:00:00 - 12.11.2019 16:00:00 (GMT)
Date & Time tt [°C] td [°C] rr [mm]
12.11.2019 16:00:00 - - -
12.11.2019 15:00:00 6,3 3,7 0,0
12.11.2019 14:00:00 6,6 3,8 0,0
12.11.2019 13:00:00 6,5 3,9 0,0
12.11.2019 12:00:00 5,6 3,9 0,0
12.11.2019 11:00:00 4,8 3,2 0,0
12.11.2019 10:00:00 4,0 2,6 0,2
12.11.2019 09:00:00 4,1 2,3 0,0
12.11.2019 08:00:00 3,5 2,7 0,0
12.11.2019 07:00:00 4,0 3,0 0,0
12.11.2019 06:00:00 4,1 3,1 0,4
12.11.2019 05:00:00 3,9 2,9 2,8
12.11.2019 04:00:00 4,3 3,6 5,2
12.11.2019 03:00:00 4,2 3,6 2,6
12.11.2019 02:00:00 4,2 3,4 2,2
12.11.2019 01:00:00 4,4 3,2 1,2
12.11.2019 00:00:00 4,5 3,4 0,6
11.11.2019 23:00:00 4,7 2,9 0,0
11.11.2019 22:00:00 4,3 2,8 0,4
11.11.2019 21:00:00 4,7 2,7 0,0
11.11.2019 20:00:00 4,5 2,7 0,2
11.11.2019 19:00:00 4,5 3,3 0,0
11.11.2019 18:00:00 4,2 3,1 1,2
11.11.2019 17:00:00 4,6 3,6 1,0
11.11.2019 16:00:00 4,8 3,1 0,0
11.11.2019 15:00:00 5,1 3,6 0,4
11.11.2019 14:00:00 4,9 4,0 1,2
11.11.2019 13:00:00 5,0 4,0 1,0
11.11.2019 12:00:00 4,6 3,8 0,4
11.11.2019 11:00:00 4,9 3,7 1,2
11.11.2019 10:00:00 4,8 4,0 1,0
11.11.2019 09:00:00 4,2 3,2 0,2
11.11.2019 08:00:00 4,0 2,6 2,0
11.11.2019 07:00:00 4,9 3,6 2,2
11.11.2019 06:00:00 4,7 3,5 2,2
11.11.2019 05:00:00 5,1 3,8 1,8
11.11.2019 04:00:00 5,3 4,2 0,6
11.11.2019 03:00:00 4,6 4,2 1,8
11.11.2019 02:00:00 2,7 2,0 2,2
11.11.2019 01:00:00 3,0 2,3 0,8
11.11.2019 00:00:00 2,8 2,0 0,8
10.11.2019 23:00:00 2,7 1,9 1,4
10.11.2019 22:00:00 2,9 1,9 1,4
10.11.2019 21:00:00 3,5 2,0 0,4
10.11.2019 20:00:00 4,0 1,5 0,0
10.11.2019 19:00:00 4,0 1,2 0,0
10.11.2019 18:00:00 4,1 0,4 0,0
10.11.2019 17:00:00 4,1 -0,2 0,0
10.11.2019 16:00:00 4,2 0,1 0,0
10.11.2019 15:00:00 4,9 0,1 0,0
10.11.2019 14:00:00 5,9 0,1 0,0
10.11.2019 13:00:00 5,8 0,2 0,0
10.11.2019 12:00:00 5,0 -0,1 0,0
10.11.2019 11:00:00 4,3 -0,6 0,0
10.11.2019 10:00:00 3,3 -0,9 0,0
10.11.2019 09:00:00 1,0 -1,6 0,0
10.11.2019 08:00:00 0,7 -2,7 0,0
10.11.2019 07:00:00 1,0 -2,5 0,0
10.11.2019 06:00:00 2,5 -4,3 0,0
10.11.2019 05:00:00 3,4 -4,0 0,0
10.11.2019 04:00:00 3,5 -3,5 0,0
10.11.2019 03:00:00 3,7 -3,9 0,0
10.11.2019 02:00:00 3,9 -1,4 0,2
10.11.2019 01:00:00 4,1 -2,7 0,0
10.11.2019 00:00:00 4,1 -2,2 0,0
09.11.2019 23:00:00 3,9 -3,5 0,0
09.11.2019 22:00:00 3,8 -2,5 0,0
09.11.2019 21:00:00 3,5 -2,8 0,0
09.11.2019 20:00:00 3,5 -2,2 0,0
09.11.2019 19:00:00 3,0 -1,4 0,0
09.11.2019 18:00:00 3,0 -0,3 0,2
09.11.2019 17:00:00 3,2 0,0 0,0
09.11.2019 16:00:00 3,2 0,3 0,0
09.11.2019 15:00:00 3,6 -0,2 0,0
09.11.2019 14:00:00 4,0 0,0 0,0
09.11.2019 13:00:00 4,1 0,1 0,0
09.11.2019 12:00:00 4,1 0,4 0,0
09.11.2019 11:00:00 4,3 -0,2 0,0
09.11.2019 10:00:00 3,7 -0,3 0,0
09.11.2019 09:00:00 3,6 -1,0 0,0
09.11.2019 08:00:00 3,3 -0,8 0,2
09.11.2019 07:00:00 2,9 -0,1 0,0
09.11.2019 06:00:00 0,9 -0,6 0,0
09.11.2019 05:00:00 1,0 -1,6 0,0
09.11.2019 04:00:00 0,3 -1,0 0,0
09.11.2019 03:00:00 1,9 -0,4 0,0
09.11.2019 02:00:00 0,7 -1,2 0,0
09.11.2019 01:00:00 2,5 0,6 0,0
09.11.2019 00:00:00 1,4 0,1 0,0
08.11.2019 23:00:00 1,5 0,4 0,0
08.11.2019 22:00:00 1,2 0,2 0,0
08.11.2019 21:00:00 1,8 0,2 0,0
08.11.2019 20:00:00 2,1 0,2 0,0
08.11.2019 19:00:00 3,4 1,2 0,0
08.11.2019 18:00:00 3,4 0,8 0,0
08.11.2019 17:00:00 2,9 0,0 0,0
08.11.2019 16:00:00 4,3 0,9 0,0
08.11.2019 15:00:00 4,5 1,4 0,0
08.11.2019 14:00:00 4,3 0,9 0,0
08.11.2019 13:00:00 4,0 0,7 0,0
08.11.2019 12:00:00 4,0 0,7 0,0
08.11.2019 11:00:00 3,8 0,0 0,0
08.11.2019 10:00:00 4,1 0,4 0,0
08.11.2019 09:00:00 2,3 -0,5 0,0
08.11.2019 08:00:00 3,7 -0,7 0,0
08.11.2019 07:00:00 2,8 0,1 0,0
08.11.2019 06:00:00 3,2 0,5 0,0
08.11.2019 05:00:00 3,9 0,5 0,0
08.11.2019 04:00:00 4,4 0,1 0,0
08.11.2019 03:00:00 4,7 0,1 0,0
08.11.2019 02:00:00 4,9 0,5 0,0
08.11.2019 01:00:00 5,0 0,3 0,0
08.11.2019 00:00:00 4,8 -0,3 0,0
07.11.2019 23:00:00 4,6 0,2 0,0
07.11.2019 22:00:00 4,7 1,8 0,0
07.11.2019 21:00:00 5,3 1,8 0,0
07.11.2019 20:00:00 5,2 3,7 1,6
07.11.2019 19:00:00 6,0 3,1 0,0
07.11.2019 18:00:00 5,7 3,4 0,4
07.11.2019 17:00:00 6,2 3,9 1,0
07.11.2019 16:00:00 6,2 3,7 1,2
07.11.2019 15:00:00 7,0 3,9 0,2
07.11.2019 14:00:00 7,0 3,3 0,0
07.11.2019 13:00:00 6,5 3,7 0,6
07.11.2019 12:00:00 5,9 3,9 2,0
07.11.2019 11:00:00 5,5 3,5 1,0
07.11.2019 10:00:00 5,1 3,7 1,6
07.11.2019 09:00:00 4,9 3,4 1,2
07.11.2019 08:00:00 4,8 3,5 0,4
07.11.2019 07:00:00 4,4 3,1 0,2
07.11.2019 06:00:00 4,4 3,4 1,0
07.11.2019 05:00:00 4,4 3,6 1,2
07.11.2019 04:00:00 4,3 3,7 0,0
07.11.2019 03:00:00 4,3 3,2 0,0
07.11.2019 02:00:00 4,1 2,9 0,0
07.11.2019 01:00:00 3,8 2,9 0,0
07.11.2019 00:00:00 4,0 2,8 0,0
06.11.2019 23:00:00 4,1 2,8 0,0
06.11.2019 22:00:00 3,9 2,7 0,0
06.11.2019 21:00:00 4,5 3,1 0,0
06.11.2019 20:00:00 4,2 3,4 0,2
06.11.2019 19:00:00 3,5 3,1 0,4
06.11.2019 18:00:00 3,8 3,0 0,6
06.11.2019 17:00:00 4,1 2,4 0,0
06.11.2019 16:00:00 4,3 2,2 0,0

tt = temperature
td = dewpoint
rr = precipitation

Next stations